Change the Weather History Date:

Saturday, February 11, 2012

  Actual Average Record
Temperature  
Mean Temperature 65 °F -  
Max Temperature 73 °F 74 °F 86 °F (1949)
Min Temperature 55 °F 56 °F 38 °F (1973)
Growing Degree Days 15 (Base 50)    
Moisture  
Dew Point 60 °F    
Average Humidity 75    
Maximum Humidity 93    
Minimum Humidity 51    
Precipitation  
Precipitation 0.20 in - - ()
Sea Level Pressure  
Sea Level Pressure 29.97 in    
Wind  
Wind Speed 11 mph (NW)    
Max Wind Speed 22 mph    
Max Gust Speed 29 mph    
Visibility 10 miles    
Events Rain    
Averages and records for this station are not official NWS values.
T = Trace of Precipitation, MM = Missing Value Source: NWS Daily Summary

Daily Weather History Graph

Daily Weather History Graph

Search for Another Location

Airport or City:

Trip Planner

Search our weather history database for the weather conditions in past years. The results will help you decide how hot, cold, wet, or windy it might be!

Date:

Astronomy

Feb. 11, 2012 Rise Set
Actual Time 6:59 AM EST 6:11 PM EST
Civil Twilight 6:35 AM EST 6:35 PM EST
Nautical Twilight 6:08 AM EST 7:02 PM EST
Astronomical Twilight 5:41 AM EST 7:29 PM EST
Moon 10:20 PM EST (2/11) 9:13 AM EST (2/11)
Length of Visible Light 11h 59m
Length of Day
11h 11m
Waning Gibbous, 82% of the Moon is Illuminated
Feb 11
Waning Gibbous
Feb 14
Last Quarter
Feb 21
New
Feb 29
First Quarter
Mar 8
Full

Hourly Weather History & Observations

Time (EST) Temp. Dew Point Humidity Pressure Visibility Wind Dir Wind Speed Gust Speed Precip Events Conditions
12:51 AM 69.8 °F 66.2 °F 88% 29.94 in 10.0 mi West 9.2 mph - N/A   Scattered Clouds
12:53 AM 70.0 °F 66.9 °F 90% 29.95 in 10.0 mi West 10.4 mph - N/A   Scattered Clouds
1:11 AM 69.8 °F 66.2 °F 88% 29.95 in 10.0 mi WNW 10.4 mph - N/A   Mostly Cloudy
1:35 AM 69.8 °F 66.2 °F 88% 29.95 in 10.0 mi NW 9.2 mph - N/A   Overcast
1:53 AM 70.0 °F 66.0 °F 87% 29.94 in 10.0 mi NW 10.4 mph - N/A   Mostly Cloudy
2:12 AM 69.8 °F 66.2 °F 88% 29.94 in 10.0 mi NW 11.5 mph - 0.00 in Rain Light Rain
2:49 AM 69.8 °F 66.2 °F 88% 29.96 in 10.0 mi NW 9.2 mph - 0.01 in Rain Light Rain
2:53 AM 69.1 °F 66.9 °F 93% 29.96 in 7.0 mi NW 10.4 mph - 0.05 in Rain Heavy Rain
3:20 AM 69.8 °F 66.2 °F 88% 29.92 in 9.0 mi NNW 9.2 mph - 0.05 in Rain Rain
3:53 AM 68.0 °F 66.0 °F 93% 29.93 in 10.0 mi NNW 8.1 mph - 0.06 in Rain Light Rain
4:53 AM 66.9 °F 64.9 °F 93% 29.93 in 10.0 mi NW 10.4 mph - 0.09 in   Mostly Cloudy
5:53 AM 66.0 °F 64.0 °F 93% 29.90 in 10.0 mi Calm Calm - N/A   Clear
6:53 AM 66.9 °F 64.0 °F 90% 29.93 in 10.0 mi Calm Calm - N/A   Clear
7:53 AM 68.0 °F 64.9 °F 90% 29.95 in 10.0 mi West 4.6 mph - N/A   Clear
8:53 AM 69.1 °F 66.0 °F 90% 29.96 in 10.0 mi West 10.4 mph - N/A   Scattered Clouds
9:45 AM 69.8 °F 64.4 °F 83% 29.97 in 10.0 mi WNW 11.5 mph - N/A   Mostly Cloudy
9:53 AM 70.0 °F 64.0 °F 81% 29.98 in 10.0 mi WNW 15.0 mph - N/A   Mostly Cloudy
10:13 AM 71.6 °F 64.4 °F 78% 29.98 in 10.0 mi NW 13.8 mph - N/A   Scattered Clouds
10:22 AM 71.6 °F 62.6 °F 73% 29.98 in 10.0 mi WNW 17.3 mph 21.9 mph N/A   Mostly Cloudy
10:29 AM 73.4 °F 62.6 °F 69% 29.98 in 10.0 mi NW 16.1 mph - N/A   Scattered Clouds
10:39 AM 71.6 °F 62.6 °F 73% 29.97 in 10.0 mi NW 18.4 mph - N/A   Mostly Cloudy
10:53 AM 72.0 °F 62.1 °F 71% 29.98 in 10.0 mi NW 18.4 mph 23.0 mph N/A   Mostly Cloudy
11:20 AM 71.6 °F 60.8 °F 69% 29.97 in 10.0 mi NNW 19.6 mph 26.5 mph N/A   Overcast
11:53 AM 72.0 °F 60.1 °F 66% 29.98 in 10.0 mi NW 18.4 mph 26.5 mph N/A   Overcast
12:53 PM 72.0 °F 57.9 °F 61% 29.96 in 10.0 mi NW 13.8 mph 24.2 mph N/A   Overcast
1:31 PM 69.8 °F 59.0 °F 68% 29.96 in 10.0 mi NNW 12.7 mph 21.9 mph N/A   Overcast
1:48 PM 69.8 °F 57.2 °F 64% 29.95 in 10.0 mi NW 19.6 mph 28.8 mph N/A   Overcast
1:53 PM 69.1 °F 57.0 °F 65% 29.96 in 10.0 mi NW 15.0 mph 28.8 mph N/A   Overcast
2:00 PM 69.8 °F 57.2 °F 64% 29.95 in 10.0 mi NW 18.4 mph - N/A   Overcast
2:26 PM 73.4 °F 55.4 °F 53% 29.94 in 10.0 mi NW 17.3 mph 23.0 mph N/A   Mostly Cloudy
2:53 PM 72.0 °F 55.9 °F 57% 29.94 in 10.0 mi NW 12.7 mph - N/A   Scattered Clouds
3:53 PM 71.1 °F 54.0 °F 55% 29.94 in 10.0 mi NW 13.8 mph 21.9 mph N/A   Partly Cloudy
4:53 PM 72.0 °F 53.1 °F 51% 29.95 in 10.0 mi NW 15.0 mph - N/A   Clear
5:53 PM 68.0 °F 51.1 °F 55% 29.96 in 10.0 mi WNW 13.8 mph - N/A   Clear
6:53 PM 66.9 °F 52.0 °F 59% 29.97 in 10.0 mi NW 9.2 mph - N/A   Clear
7:53 PM 64.9 °F 52.0 °F 63% 30.01 in 10.0 mi NW 12.7 mph - N/A   Clear
8:53 PM 63.0 °F 52.0 °F 67% 30.04 in 10.0 mi WNW 16.1 mph - N/A   Partly Cloudy
9:53 PM 61.0 °F 50.0 °F 67% 30.06 in 10.0 mi NW 18.4 mph - N/A   Clear
10:53 PM 57.9 °F 46.9 °F 67% 30.09 in 10.0 mi NW 21.9 mph 27.6 mph N/A   Clear
11:53 PM 55.9 °F 45.0 °F 67% 30.11 in 10.0 mi NW 20.7 mph 26.5 mph N/A   Clear